Location: Champs
(48.8539°N, 2.6040°E)
Time: 06:01:37
(UTC+00:00)

In-Cosmos 22 - Pass Details

Date: 26 October 2021
Orbit: 785 x 876 km, 81.2° (Epoch: 04 December)

Event Time Altitude Azimuth Distance (km) Brightness Sun altitude
Exits shadow 03:47:14 62° 173° (S) 887 4.2 -26.8°
Maximum altitude 03:48:08 81° 100° (E) 804 4.0 -26.6°
Drops below altitude 10° 03:53:29 10° 14° (NNE) 2,377 6.8 -25.8°
Sets 03:55:53 0° 13° (NNE) 3,321 7.6 -25.4°
